When you browse on this site, cookies collect data to enhance your experience and personalize the content and advertising you see.
Visit our Privacy Policy to learn more. By continuing to use the site, you agree to this use of cookies and data.
  • In Lithuania
  • List of Countries
  • For 7 days
  • Water Temperature
  • Weather Map
  • Weather Widgets
  • user-avatar
    Login

    Hourly Weather Lezhe

    Today, 28 March, Saturday

    Time Temperature Precipitation Wind Pressure Humidity
    00:00 +9°C° 0.2 mm 1 mps 736 mmHg 92%
    01:00 +9°C° 0 mm 1 mps 736 mmHg 93%
    02:00 +9°C° 0.1 mm 1 mps 735 mmHg 92%
    03:00 +9°C° 0.1 mm 1 mps 735 mmHg 91%
    04:00 +9°C° 0.1 mm 1 mps 735 mmHg 90%
    05:00 +9°C° 0 mm 1 mps 735 mmHg 88%
    06:00 +9°C° 0 mm 1 mps 735 mmHg 85%
    07:00 +10°C° 0 mm 1 mps 735 mmHg 83%
    08:00 +11°C° 0 mm 1 mps 735 mmHg 78%
    09:00 +12°C° 0 mm 1 mps 735 mmHg 72%
    10:00 +13°C° 0 mm 1 mps 735 mmHg 67%
    11:00 +13°C° 0.1 mm 2 mps 735 mmHg 67%
    12:00 +14°C° 0.1 mm 2 mps 734 mmHg 66%
    13:00 +13°C° 0.1 mm 3 mps 734 mmHg 66%
    14:00 +13°C° 0.2 mm 2 mps 734 mmHg 68%
    15:00 +13°C° 0.2 mm 2 mps 734 mmHg 70%
    16:00 +13°C° 0.2 mm 2 mps 734 mmHg 71%
    17:00 +12°C° 0.1 mm 2 mps 734 mmHg 75%
    18:00 +10°C° 0.1 mm 2 mps 734 mmHg 78%
    19:00 +10°C° 0.1 mm 2 mps 734 mmHg 81%
    20:00 +10°C° 0 mm 1 mps 734 mmHg 81%
    21:00 +10°C° 0 mm 1 mps 734 mmHg 81%
    22:00 +9°C° 0 mm 1 mps 735 mmHg 81%
    23:00 +10°C° 0 mm 1 mps 735 mmHg 80%

    Tomorrow, 29 March, Sunday

    Time Temperature Precipitation Wind Pressure Humidity
    00:00 +10°C° 0 mm 1 mps 735 mmHg 80%
    01:00 +10°C° 0 mm 1 mps 735 mmHg 79%
    02:00 +9°C° 0 mm 1 mps 734 mmHg 80%
    03:00 +9°C° 0 mm 1 mps 734 mmHg 81%
    04:00 +9°C° 0 mm 1 mps 734 mmHg 81%
    05:00 +9°C° 0 mm 1 mps 734 mmHg 80%
    06:00 +10°C° 0 mm 1 mps 734 mmHg 78%
    07:00 +10°C° 0 mm 1 mps 734 mmHg 77%
    08:00 +12°C° 0 mm 1 mps 734 mmHg 71%
    09:00 +13°C° 0 mm 1 mps 734 mmHg 65%
    10:00 +15°C° 0 mm 1 mps 734 mmHg 60%
    11:00 +15°C° 0.1 mm 1 mps 734 mmHg 59%
    12:00 +15°C° 0.1 mm 2 mps 734 mmHg 58%
    13:00 +16°C° 0.1 mm 2 mps 733 mmHg 58%
    14:00 +15°C° 0.2 mm 2 mps 733 mmHg 61%
    15:00 +15°C° 0.2 mm 2 mps 733 mmHg 64%
    16:00 +15°C° 0.2 mm 2 mps 733 mmHg 67%
    17:00 +13°C° 0.1 mm 1 mps 733 mmHg 73%
    18:00 +12°C° 0.1 mm 1 mps 733 mmHg 79%
    19:00 +10°C° 0.1 mm 0 mps 733 mmHg 85%
    20:00 +9°C° 0 mm 0 mps 733 mmHg 85%
    21:00 +10°C° 0 mm 1 mps 733 mmHg 84%
    22:00 +10°C° 0 mm 1 mps 734 mmHg 83%
    23:00 +10°C° 0 mm 1 mps 733 mmHg 82%

    Day after tomorrow, 30 March, Monday

    Time Temperature Precipitation Wind Pressure Humidity
    00:00 +9°C° 0 mm 1 mps 733 mmHg 81%
    01:00 +9°C° 0 mm 1 mps 733 mmHg 80%
    02:00 +9°C° 0 mm 1 mps 733 mmHg 79%
    03:00 +9°C° 0 mm 1 mps 733 mmHg 79%
    04:00 +8°C° 0 mm 2 mps 733 mmHg 78%
    05:00 +8°C° 0 mm 2 mps 733 mmHg 76%
    06:00 +9°C° 0 mm 2 mps 732 mmHg 74%
    07:00 +10°C° 0 mm 2 mps 732 mmHg 72%
    08:00 +12°C° 0 mm 2 mps 732 mmHg 65%
    09:00 +14°C° 0 mm 2 mps 732 mmHg 59%
    10:00 +16°C° 0 mm 2 mps 733 mmHg 52%
    11:00 +17°C° 0 mm 2 mps 732 mmHg 51%
    12:00 +17°C° 0 mm 3 mps 732 mmHg 50%
    13:00 +18°C° 0 mm 3 mps 731 mmHg 49%
    14:00 +17°C° 0.1 mm 3 mps 731 mmHg 51%
    15:00 +17°C° 0.1 mm 3 mps 731 mmHg 53%
    16:00 +17°C° 0.1 mm 3 mps 730 mmHg 55%
    17:00 +14°C° 0 mm 3 mps 731 mmHg 59%
    18:00 +13°C° 0 mm 4 mps 731 mmHg 63%
    19:00 +12°C° 0 mm 4 mps 731 mmHg 67%
    20:00 +11°C° 0 mm 4 mps 732 mmHg 69%
    21:00 +11°C° 0 mm 4 mps 732 mmHg 71%
    22:00 +10°C° 0 mm 4 mps 732 mmHg 73%
    23:00 +10°C° 0 mm 4 mps 732 mmHg 74%

    31 March, Tuesday

    Time Temperature Precipitation Wind Pressure Humidity
    00:00 +8°C° 0 mm 4 mps 732 mmHg 75%
    01:00 +8°C° 0 mm 4 mps 732 mmHg 77%
    02:00 +7°C° 0 mm 4 mps 732 mmHg 78%
    03:00 +7°C° 0 mm 4 mps 732 mmHg 78%
    04:00 +6°C° 0 mm 4 mps 733 mmHg 79%
    05:00 +7°C° 0 mm 4 mps 733 mmHg 78%
    06:00 +7°C° 0 mm 4 mps 733 mmHg 76%
    07:00 +7°C° 0 mm 4 mps 733 mmHg 75%
    08:00 +8°C° 0 mm 4 mps 734 mmHg 70%
    09:00 +10°C° 0 mm 4 mps 734 mmHg 65%
    10:00 +11°C° 0 mm 4 mps 735 mmHg 61%
    11:00 +12°C° 0 mm 4 mps 735 mmHg 59%
    12:00 +13°C° 0 mm 4 mps 734 mmHg 57%
    13:00 +13°C° 0 mm 4 mps 734 mmHg 55%
    14:00 +13°C° 0 mm 4 mps 735 mmHg 55%
    15:00 +12°C° 0 mm 4 mps 735 mmHg 56%
    16:00 +12°C° 0 mm 4 mps 735 mmHg 56%
    17:00 +11°C° 0 mm 4 mps 735 mmHg 59%
    18:00 +9°C° 0 mm 3 mps 736 mmHg 62%
    19:00 +8°C° 0 mm 3 mps 736 mmHg 65%
    20:00 +7°C° 0 mm 3 mps 737 mmHg 65%
    21:00 +7°C° 0 mm 3 mps 737 mmHg 66%
    22:00 +5°C° 0 mm 3 mps 737 mmHg 66%
    23:00 +4°C° 0.1 mm 4 mps 737 mmHg 70%

    1 April, Wednesday

    Time Temperature Precipitation Wind Pressure Humidity
    00:00 +3°C° 0.1 mm 4 mps 737 mmHg 73%
    01:00 +3°C° 0.1 mm 4 mps 737 mmHg 77%
    02:00 +1°C° 0.6 mm 5 mps 737 mmHg 81%
    03:00 0°C° 0.6 mm 5 mps 737 mmHg 86%
    04:00 -1°C° 0.6 mm 5 mps 737 mmHg 90%
    05:00 -1°C° 0.7 mm 5 mps 737 mmHg 88%
    06:00 -1°C° 0.7 mm 5 mps 737 mmHg 86%
    07:00 -1°C° 0.7 mm 5 mps 737 mmHg 84%
    08:00 0°C° 0.1 mm 5 mps 737 mmHg 78%
    09:00 +1°C° 0.1 mm 5 mps 737 mmHg 73%
    10:00 +2°C° 0.1 mm 5 mps 738 mmHg 67%
    11:00 +3°C° 0 mm 5 mps 738 mmHg 61%
    12:00 +5°C° 0 mm 5 mps 738 mmHg 56%
    13:00 +6°C° 0 mm 5 mps 738 mmHg 51%
    14:00 +6°C° 0 mm 4 mps 738 mmHg 49%
    15:00 +6°C° 0 mm 4 mps 738 mmHg 47%
    16:00 +6°C° 0 mm 4 mps 738 mmHg 46%
    17:00 +5°C° 0 mm 4 mps 738 mmHg 50%
    18:00 +3°C° 0 mm 4 mps 738 mmHg 54%
    19:00 +1°C° 0 mm 4 mps 738 mmHg 58%
    20:00 0°C° 0 mm 4 mps 739 mmHg 60%
    21:00 0°C° 0 mm 4 mps 739 mmHg 61%
    22:00 -1°C° 0 mm 4 mps 740 mmHg 62%
    23:00 -1°C° 0 mm 4 mps 739 mmHg 64%

    2 April, Thursday

    Time Temperature Precipitation Wind Pressure Humidity
    00:00 0°C° 0 mm 3 mps 739 mmHg 66%
    01:00 -1°C° 0 mm 3 mps 739 mmHg 67%
    02:00 -1°C° 0 mm 3 mps 739 mmHg 67%
    03:00 -2°C° 0 mm 4 mps 738 mmHg 67%
    04:00 -2°C° 0 mm 4 mps 738 mmHg 68%
    05:00 0°C° 0 mm 3 mps 738 mmHg 65%
    06:00 +1°C° 0 mm 3 mps 738 mmHg 62%
    07:00 +2°C° 0 mm 3 mps 738 mmHg 59%
    08:00 +4°C° 0 mm 3 mps 738 mmHg 55%
    09:00 +7°C° 0 mm 3 mps 737 mmHg 52%
    10:00 +8°C° 0 mm 2 mps 737 mmHg 48%
    11:00 +10°C° 0 mm 2 mps 737 mmHg 47%
    12:00 +12°C° 0 mm 2 mps 737 mmHg 45%
    13:00 +13°C° 0 mm 2 mps 737 mmHg 44%
    14:00 +13°C° 0 mm 2 mps 736 mmHg 45%
    15:00 +12°C° 0 mm 2 mps 736 mmHg 47%
    16:00 +12°C° 0 mm 1 mps 736 mmHg 49%
    17:00 +10°C° 0 mm 1 mps 736 mmHg 55%
    18:00 +8°C° 0 mm 0 mps 736 mmHg 61%
    19:00 +6°C° 0 mm 0 mps 736 mmHg 68%
    20:00 +6°C° 0 mm 0 mps 736 mmHg 68%
    21:00 +6°C° 0 mm 0 mps 737 mmHg 69%
    22:00 +5°C° 0 mm 0 mps 737 mmHg 69%
    23:00 +6°C° 0 mm 1 mps 737 mmHg 69%
    Show more